Weather History for Air Force Academy, CO

Change the Weather History Date:

Tuesday, February 12, 2013

  Actual Average Record
Temperature  
Mean Temperature 19 °F -  
Max Temperature 35 °F 41 °F 55 °F (2003)
Min Temperature 3 °F 19 °F -7 °F (2004)
Degree Days  
Heating Degree Days 46    
Moisture  
Dew Point 0 °F    
Average Humidity 53    
Maximum Humidity 83    
Minimum Humidity 16    
Precipitation  
Precipitation 0.02 in - - ()
Sea Level Pressure  
Sea Level Pressure 30.18 in    
Wind  
Wind Speed 7 mph (North)    
Max Wind Speed 14 mph    
Max Gust Speed -    
Visibility 10 miles    
Events      
Averages and records for this station are not official NWS values.
T = Trace of Precipitation, MM = Missing Value Source: NWS Daily Summary

Daily Weather History Graph

Daily Weather History Graph

Search for Another Location

Airport:

Trip Planner

Search our weather history database for the weather conditions in past years. The results will help you decide how hot, cold, wet, or windy it might be!

Date:

Astronomy

Feb. 12, 2013 Rise Set
Actual Time 6:53 AM MST 5:33 PM MST
Civil Twilight 6:26 AM MST 6:01 PM MST
Nautical Twilight 5:55 AM MST 6:32 PM MST
Astronomical Twilight 5:24 AM MST 7:03 PM MST
Moon 7:54 AM MST (2/12) 8:34 PM MST (2/12)
Length of Visible Light 11h 34m
Length of Day
10h 39m
Waxing Crescent, 8% of the Moon is Illuminated
Feb 12
Waxing Crescent
Feb 17
First Quarter
Feb 25
Full
Mar 4
Last Quarter
Mar 11
New

Hourly Weather History & Observations

Time (MST) Temp. Windchill Dew Point Humidity Pressure Visibility Wind Dir Wind Speed Gust Speed Precip Events Conditions
12:58 AM 8.1 °F -0.5 °F 2.8 °F 79% 30.20 in 10.0 mi NNE 4.6 mph - N/A   Clear
1:58 AM 6.6 °F -7.1 °F 2.5 °F 83% 30.19 in 10.0 mi NNE 9.2 mph - N/A   Clear
2:58 AM 4.3 °F -13.2 °F -0.0 °F 82% 30.20 in 10.0 mi North 13.8 mph - N/A   Clear
3:58 AM 3.6 °F -12.6 °F -0.9 °F 82% 30.20 in 10.0 mi North 11.5 mph - N/A   Clear
4:58 AM 5.2 °F -9.8 °F -0.0 °F 79% 30.19 in 10.0 mi North 10.4 mph - N/A   Clear
5:58 AM 3.7 °F -13.2 °F -2.0 °F 77% 30.21 in 10.0 mi North 12.7 mph - N/A   Clear
6:58 AM 5.7 °F -8.2 °F -0.4 °F 76% 30.23 in 10.0 mi NNW 9.2 mph - N/A   Clear
7:58 AM 5.0 °F -4.1 °F -1.1 °F 76% 30.28 in 10.0 mi North 4.6 mph - N/A   Clear
8:58 AM 14.5 °F 8.8 °F 4.5 °F 64% 30.23 in 10.0 mi Variable 3.5 mph - N/A   Clear
9:58 AM 23.0 °F - 7.0 °F 50% 30.21 in 10.0 mi Calm Calm - N/A   Clear
10:58 AM 30.0 °F - 2.7 °F 31% 30.17 in 10.0 mi NNE 2.3 mph - 0.02 in   Clear
11:58 AM 31.8 °F 24.6 °F -2.9 °F 23% 30.16 in 10.0 mi East 8.1 mph - N/A   Clear
12:58 PM 33.1 °F 30.0 °F -2.0 °F 22% 30.15 in 10.0 mi Variable 3.5 mph - N/A   Clear
1:58 PM 35.1 °F 30.1 °F -2.4 °F 20% 30.11 in 10.0 mi ENE 5.8 mph - N/A   Scattered Clouds
2:58 PM 35.4 °F - -5.8 °F 17% 30.11 in 10.0 mi Variable 1.2 mph - N/A   Scattered Clouds
3:58 PM 35.8 °F 29.4 °F -6.3 °F 16% 30.13 in 10.0 mi NNW 8.1 mph - N/A   Clear
4:58 PM 34.2 °F 27.5 °F -4.9 °F 19% 30.14 in 10.0 mi NNE 8.1 mph - N/A   Clear
5:58 PM 25.5 °F 17.8 °F 0.7 °F 34% 30.21 in 10.0 mi NNW 6.9 mph - N/A   Clear
6:58 PM 23.0 °F 18.4 °F 1.0 °F 39% 30.21 in 10.0 mi NNW 3.5 mph - N/A   Clear
7:58 PM 19.2 °F 10.2 °F 4.1 °F 52% 30.24 in 10.0 mi North 6.9 mph - N/A   Clear
8:58 PM 16.2 °F 9.0 °F 4.8 °F 61% 30.22 in 10.0 mi North 4.6 mph - N/A   Clear
9:58 PM 14.2 °F 4.1 °F 3.2 °F 62% 30.17 in 10.0 mi North 6.9 mph - N/A   Clear
10:58 PM 13.3 °F 2.0 °F 2.1 °F 61% 30.13 in 10.0 mi North 8.1 mph - N/A   Clear
11:58 PM 13.1 °F 2.8 °F 1.2 °F 59% 30.13 in 10.0 mi North 6.9 mph - N/A   Clear